Birmingham, AL

4:36 AM CDT on July 27, 2017 (GMT -0500)
Birmingham International

Weather History for KBHM - October, 2011

Change the Weather History Date:

Sunday, October 23, 2011

  Actual Average Record
Temperature  
Mean Temperature 54 °F 62 °F  
Max Temperature 70 °F 73 °F 89 °F (1941)
Min Temperature 38 °F 51 °F 32 °F (1937)
Degree Days  
Heating Degree Days 11 5  
Month to date heating degree days 88 69  
Since 1 July heating degree days 94 78  
Cooling Degree Days 0 2  
Month to date cooling degree days 39 76  
Year to date cooling degree days 2356 2026  
Growing Degree Days 4 (Base 50)    
Moisture  
Dew Point 43 °F    
Average Humidity 63    
Maximum Humidity 92    
Minimum Humidity 33    
Precipitation  
Precipitation T in 0.11 in 1.93 in (1945)
Month to date precipitation 0.29 2.53  
Year to date precipitation 46.64 43.51  
Snow  
Snow 0.00 in 0.00 in - ()
Month to date snowfall 0.0 0.0  
Since 1 July snowfall 0.0 0.0  
Since 1 September snowfall 0.0 0.0  
Snow Depth 0.00 in    
Sea Level Pressure  
Sea Level Pressure 30.11 in    
Wind  
Wind Speed 2 mph (NE)    
Max Wind Speed 9 mph    
Max Gust Speed 13 mph    
Visibility 10 miles    
Events Rain    
T = Trace of Precipitation, MM = Missing Value Source: NWS Daily Summary

Daily Weather History Graph

Daily Weather History Graph

Search for Another Location

Airport or City:

Trip Planner

Search our weather history database for the weather conditions in past years. The results will help you decide how hot, cold, wet, or windy it might be!

Date:

Astronomy

Oct. 23, 2011 Rise Set
Actual Time 6:57 AM CDT 6:04 PM CDT
Civil Twilight 6:32 AM CDT 6:29 PM CDT
Nautical Twilight 6:03 AM CDT 6:58 PM CDT
Astronomical Twilight 5:34 AM CDT 7:27 PM CDT
Moon 3:14 AM CDT (10/23) 3:46 PM CDT (10/23)
Length of Visible Light 11h 56m
Length of Day
11h 06m
Waning Crescent, 14% of the Moon is Illuminated
Oct 23
Waning Crescent
Oct 26
New
Nov 2
First Quarter
Nov 10
Full
Nov 18
Last Quarter

Hourly Weather History & Observations

Time (CDT) Temp. Dew Point Humidity Pressure Visibility Wind Dir Wind Speed Gust Speed Precip Events Conditions
12:53 AM 44.1 °F 39.9 °F 85% 30.10 in 10.0 mi Calm Calm - N/A   Clear
1:53 AM 44.1 °F 39.0 °F 82% 30.10 in 10.0 mi Calm Calm - N/A   Clear
2:53 AM 42.1 °F 39.0 °F 89% 30.10 in 10.0 mi Calm Calm - N/A   Clear
3:53 AM 42.1 °F 39.0 °F 89% 30.10 in 10.0 mi Calm Calm - N/A   Clear
4:53 AM 42.1 °F 39.0 °F 89% 30.10 in 10.0 mi Calm Calm - N/A   Clear
5:53 AM 39.9 °F 37.9 °F 93% 30.11 in 10.0 mi Calm Calm - N/A   Clear
6:53 AM 39.9 °F 37.0 °F 89% 30.13 in 10.0 mi Calm Calm - N/A   Clear
7:53 AM 44.1 °F 39.9 °F 85% 30.14 in 10.0 mi Calm Calm - N/A   Clear
8:53 AM 53.6 °F 44.6 °F 72% 30.15 in 10.0 mi Calm Calm - N/A   Clear
9:53 AM 62.1 °F 41.0 °F 46% 30.15 in 10.0 mi Calm Calm - N/A   Clear
10:53 AM 66.2 °F 41.0 °F 40% 30.13 in 10.0 mi SE 5.8 mph - N/A   Clear
11:53 AM 66.2 °F 41.0 °F 40% 30.13 in 10.0 mi South 5.8 mph - N/A   Clear
12:53 PM 68.0 °F 41.0 °F 37% 30.12 in 10.0 mi SSW 8.1 mph - N/A   Clear
1:53 PM 69.1 °F 39.9 °F 35% 30.09 in 10.0 mi WSW 5.8 mph - N/A   Clear
2:53 PM 68.0 °F 39.0 °F 35% 30.07 in 10.0 mi Calm Calm - N/A   Clear
3:53 PM 68.0 °F 39.9 °F 36% 30.07 in 10.0 mi Calm Calm - N/A   Clear
4:53 PM 66.0 °F 43.0 °F 43% 30.07 in 10.0 mi NNW 3.5 mph - N/A   Overcast
5:53 PM 62.1 °F 46.9 °F 58% 30.07 in 10.0 mi NE 3.5 mph - N/A   Overcast
6:53 PM 60.8 °F 48.2 °F 63% 30.07 in 10.0 mi Calm Calm - N/A   Overcast
7:53 PM 59.0 °F 53.1 °F 81% 30.08 in 10.0 mi NE 3.5 mph - 0.00 in Rain Light Rain
8:53 PM 57.2 °F 53.6 °F 88% 30.11 in 10.0 mi North 3.5 mph - N/A   Overcast
9:53 PM 57.9 °F 51.1 °F 78% 30.11 in 10.0 mi NE 4.6 mph - N/A   Overcast
10:53 PM 57.0 °F 52.0 °F 83% 30.12 in 10.0 mi Calm Calm - N/A   Overcast
11:53 PM 57.2 °F 51.8 °F 82% 30.13 in 10.0 mi Calm Calm - N/A   Overcast